Regional Weather Roundup
Issued by NWS Glasgow, MT

Current Version | Previous Version | Text Only | Print | Product List | Glossary On
Versions: 1 2 3 4 5 6 7 8 9 10 11 12 13 14 15 16 17 18 19 20 21 22 23 24 25 26 27
000
ASUS45 KGGW 031315
RWRGGW
HOURLY REGIONAL WEATHER ROUNDUP FOR NORTHEAST MONTANA
NATIONAL WEATHER SERVICE GLASGOW MONTANA
700 AM MDT TUE MAY 03 2016

NOTE: "FAIR" INDICATES FEW OR NO CLOUDS BELOW 12,000 FEET WITH NO
SIGNIFICANT WEATHER AND/OR OBSTRUCTIONS TO VISISBILITY.

NORTHEAST MONTANA


CITY           SKY/WX    TMP DP  RH WIND       PRES   REMARKS
GLASGOW        FAIR      46  40  79 NW6       30.07R
PLENTYWOOD       N/A     46  32  58 NW3         N/A
WOLF POINT     FAIR      44  39  82 CALM      30.08R
JORDAN           N/A     47  41  80 NW6       30.09R
WINNETT          N/A     38  35  89 SW1         N/A
SIDNEY         FAIR      43  36  75 S5        30.07R
GLENDIVE       FAIR      46  37  71 S3        30.10R
MALTA            N/A     47  44  90 SW3         N/A
SCOBEY           N/A     40  26  58 CALM      30.06R
OPHEIM           N/A     55  32  41 CALM      29.88R

FORT PECK REPORTS


CITY           SKY/WX    TMP DP  RH WIND       PRES   REMARKS
FORT PECK        N/A     49  44  83 SW2         N/A
THE PINES        N/A     49  41  74 W2          N/A

SOUTHEAST MONTANA


CITY           SKY/WX    TMP DP  RH WIND       PRES   REMARKS
BILLINGS       FAIR      47  35  63 SW12      30.16R
MILES CITY     FAIR      49  42  77 SW6       30.09R
BAKER          FAIR      43  37  79 CALM      30.09R
LIVINGSTON     FAIR      36  29  75 CALM      30.19R

CENTRAL MONTANA


CITY           SKY/WX    TMP DP  RH WIND       PRES   REMARKS
HAVRE          FAIR      43  41  93 CALM      30.10R
LEWISTOWN      FAIR      43  33  68 SE8       30.15R
GREAT FALLS    FAIR      41  35  79 SW6       30.12R
CUT BANK       FAIR      42  33  70 CALM      30.11R
HELENA         FAIR      43  30  60 W3        30.19R
BUTTE          FAIR      30  25  81 CALM      30.24R
BOZEMAN        FAIR      37  30  75 S7        30.22R

WESTERN MONTANA


CITY           SKY/WX    TMP DP  RH WIND       PRES   REMARKS
MISSOULA       FAIR      41  35  79 CALM      30.19R
KALISPELL      NOT AVBL

NORTH DAKOTA


CITY           SKY/WX    TMP DP  RH WIND       PRES   REMARKS
WILLISTON      FAIR      46  38  73 CALM      30.05R
DICKINSON      FAIR      45  37  73 W7        30.03R
MINOT          FAIR      59  31  34 W15       29.97R
BISMARCK       FAIR      47  40  76 W7        30.01S

SOUTHERN SASKATCHEWAN


CITY           SKY/WX    TMP DP  RH WIND       PRES   REMARKS
REGINA         SUNNY     50  34  53 CALM      30.04R
MOOSE JAW      MOSUNNY   48  37  66 W6        30.06R
ESTEVAN        MOSUNNY   50  36  57 N7        30.03R
SWIFT CURRENT  SUNNY     54  39  58 SW8       30.06R





USA.gov is the U.S. government's official web portal to all federal, state and local government web resources and services.